This is the latest recevied weather packets stored in our database for station/object W4BOD. If no packets are shown the sender has not sent any weather packets the latest 10 day(s).
| Time | Temp. | Humidity | Pressure | Rain* | Wind** | Luminosity | Snow |
|---|---|---|---|---|---|---|---|
| 1778088093 | 12.22° C | 99% | 1013.5 hPa | 0 mm | - | 119 W/m² | - |
| 1778087791 | 12.22° C | 99% | 1013.5 hPa | 0 mm | - | 108 W/m² | - |
| 1778087488 | 12.22° C | 99% | 1013.8 hPa | 1.27 mm | - | 108 W/m² | - |
| 1778087180 | 12.78° C | 99% | 1013.7 hPa | 1.27 mm | - | 154 W/m² | - |
| 1778086877 | 12.22° C | 99% | 1013.6 hPa | 0 mm | - | 178 W/m² | - |
| 1778086575 | 12.78° C | 99% | 1013.6 hPa | 0 mm | - | 184 W/m² | - |
| 1778086266 | 12.22° C | 99% | 1013.8 hPa | 1.78 mm | - | 195 W/m² | - |
| 1778085963 | 12.78° C | 99% | 1013.6 hPa | 1.78 mm | - | 136 W/m² | - |
| 1778085661 | 12.22° C | 99% | 1013.7 hPa | 0 mm | - | 60 W/m² | - |
| 1778085356 | 12.78° C | 99% | 1013.8 hPa | 0 mm | - | 61 W/m² | - |
| 1778085051 | 12.78° C | 99% | 1013.7 hPa | 0 mm | - | 72 W/m² | - |
| 1778084748 | 12.22° C | 99% | 1013.6 hPa | 0 mm | - | 53 W/m² | - |
| 1778084439 | 12.78° C | 99% | 1013.4 hPa | 0 mm | - | 97 W/m² | - |
| 1778084137 | 12.78° C | 99% | 1013.4 hPa | 0 mm | - | 116 W/m² | - |
| 1778083834 | 12.22° C | 99% | 1013.4 hPa | 0 mm | - | 140 W/m² | - |
| 1778083532 | 12.78° C | 99% | 1013.5 hPa | 0 mm | - | 135 W/m² | - |
| 1778083228 | 12.22° C | 99% | 1013.6 hPa | 0 mm | - | 104 W/m² | - |
| 1778082927 | 12.22° C | 99% | 1013.7 hPa | 0 mm | - | 90 W/m² | - |
| 1778081818 | 12.22° C | 99% | 1013.5 hPa | 0 mm | - | 116 W/m² | - |
| 1778081515 | 12.78° C | 99% | 1013.6 hPa | 0 mm | - | 144 W/m² | - |
| 1778081212 | 12.78° C | 99% | 1013.6 hPa | 0 mm | - | 97 W/m² | - |
| 1778080910 | 12.22° C | 99% | 1013.3 hPa | 0 mm | - | 119 W/m² | - |
| 1778080609 | 12.22° C | 99% | 1013.5 hPa | 0 mm | - | 101 W/m² | - |
| 1778080305 | 12.22° C | 99% | 1013.2 hPa | 0 mm | - | 108 W/m² | - |
| 1778080002 | 12.22° C | 99% | 1013.4 hPa | 0 mm | - | 67 W/m² | - |
* Rain latest hour (hover to see other rain measurements)
** Current wind speed in m/s (hover to see current wind gust speed)